Regional Weather Roundup
Issued by NWS

Home | Current Version | Previous Version | Graphics & Text | Print | Product List | Glossary On
Versions: 1 2 3 4 5 6 7 8 9 10 11 12 13 14 15 16 17 18 19 20 21 22 23 24 25 26 27 28 29 30 31 32 33 34 35 36 37 38 39 40 41 42 43 44 45 46 47 48 49 50
000
ASUS43 KMPX 250410
RWRMN
WEATHER ROUNDUP FOR MINNESOTA
NATIONAL WEATHER SERVICE TWIN CITIES/CHANHASSEN MN
1100 PM CDT FRI MAR 24 2017


NOTE: "FAIR" INDICATES FEW OR NO CLOUDS BELOW 12,000 FEET WITH NO
SIGNIFICANT WEATHER AND/OR OBSTRUCTIONS TO VISIBILITY. N/A MEANS
CURRENT SKY AND/OR WEATHER CONDITIONS ARE NOT AVAILABLE.

MNZ060>063-068>070-250500-
   Twin Cities Metro

CITY           SKY/WX    TMP DP  RH WIND       PRES   REMARKS
TWIN CITIES    CLOUDY    40  33  76 E13G22    30.17S
ST PAUL        CLOUDY    39  34  82 E13       30.18S
CRYSTAL        CLOUDY    38  31  76 E12G22    30.16S
BLAINE         CLOUDY    39  37  93 E13       30.17S
LAKEVILLE      CLOUDY    37  36  93 NE10      30.15S
EDEN PRAIRIE   CLOUDY    40  33  76 NE9G20    30.15R
SOUTH ST PAUL  CLOUDY    39  33  77 E9        30.16S
LAKE ELMO      CLOUDY    37  34  87 NE10      30.18S
$$
MNZ001>005-007-008-013>017-022>024-027-028-250500-
   Northwest Minnesota

CITY           SKY/WX    TMP DP  RH WIND       PRES   REMARKS
BEMIDJI        CLOUDY    35  29  80 E6        30.20R WCI  30
HALLOCK        CLEAR     30  28  93 CALM      30.24F
ROSEAU         CLEAR     30  27  86 CALM      30.25R
WARROAD        CLEAR     30  27  86 NE5       30.26R WCI  25
THIEF RVR FALL CLEAR    N/A N/A N/A NE9       30.23S
CROOKSTON      CLEAR     30  28  93 N3        30.23F
FOSSTON        CLEAR     27  27 100 CALM      30.22R
DETROIT LAKES  CLEAR     34  30  86 SE6       30.19S WCI  29
MOORHEAD       CLEAR     30  28  93 N9        30.22R WCI  22
PARK RAPIDS    CLOUDY    38  27  64 E8        30.17F
MAHNOMEN       FAIR      30  28  92 CALM      30.20R
$$
MNZ006-009>011-018-025>026-250500-
   North Central Minnesota

CITY           SKY/WX    TMP DP  RH WIND       PRES   REMARKS
BAUDETTE       CLEAR     30  23  75 E5        30.23R WCI  25
FLAG ISLAND    PTCLDY    32  25  74 E3        30.26R
INTL FALLS     CLOUDY    34  27  75 E6        30.24F WCI  29
WASKISH        CLOUDY    36  28  75 E5        30.22S
BIG FORK       CLOUDY    36  28  75 CALM      30.23S
LONGVILLE      CLOUDY    36  30  80 CALM      30.20F
GRAND RAPIDS   CLOUDY    35  31  85 CALM      30.23F
CRANE LAKE     CLOUDY    30  28  93 CALM      30.27F
ORR            CLOUDY    34  27  75 CALM      30.21F
COOK           CLOUDY    34  30  86 CALM      30.24F
WALKER         CLOUDY    35  29  78 E3        30.20S
$$
MNZ012-019>021-037-250500-
   Northeast Minnesota

CITY           SKY/WX    TMP DP  RH WIND       PRES   REMARKS
DULUTH         CLOUDY    34  32  92 E12       30.21S WCI  25
ELY            CLOUDY    34  32  93 CALM      30.25R
HIBBING        CLOUDY    32  31  96 NE3       30.22S
EVELETH        CLOUDY    35  32  90 CALM      30.25R
DULUTH HARBOR  CLOUDY    36  34  93 NE13      30.25F
TWO HARBORS    CLOUDY    36  30  80 NE6       30.23S
SILVER BAY     CLOUDY    34  34 100 E6        30.24S WCI  29
GRAND MARAIS     N/A     35  31  85 NE5       30.29R WCI  31
G MARAIS ARPRT CLOUDY    28  21  74 N3        30.25R
$$
MNZ029>031-032-039>041-046>048-054>057-064-250500-
   West Central Minnesota

CITY           SKY/WX    TMP DP  RH WIND       PRES   REMARKS
FERGUS FALLS   CLEAR     36  30  80 E3        30.23R
WHEATON        MOCLDY    30  28  93 CALM      30.22S
MORRIS         PTCLDY    32  30  93 CALM      30.19R
ALEXANDRIA     CLOUDY    36  30  79 NE9       30.19R
ELBOW LAKE     FAIR      32  30  94 CALM      30.19S
WADENA         CLOUDY    36  28  75 E6        30.18F
GLENWOOD       CLOUDY    36  30  80 E12       30.18S
APPLETON       CLEAR     34  30  86 CALM      30.19R
BENSON         CLOUDY    34  28  80 CALM      30.20R
ORTONVILLE     CLOUDY    34  30  86 NE3       30.19R
MADISON        CLOUDY    36  34  93 NE3       30.19R
WILLMAR        CLOUDY    39  34  81 E9G17     30.17F
$$
MNZ033>034-036-042>043-049>051-058-059-250500-
   Central Minnesota

CITY           SKY/WX    TMP DP  RH WIND       PRES   REMARKS
ST CLOUD       CLOUDY    38  32  79 NE8       30.17S
SAUK CENTRE    CLOUDY    37  31  79 E7G21     30.18S
PAYNESVILLE      N/A     38  32  80 NE9       30.17F
AITKIN         CLOUDY    37  30  75 CALM      30.20S
PINE RIVER     CLOUDY    36  30  80 E5        30.23F
BRAINERD       CLOUDY    36  30  79 NE5       30.21R
STAPLES        CLOUDY    37  28  70 E7        30.19F
LONG PRAIRIE   MOCLDY    34  30  86 N7        30.19S WCI  28
LITTLE FALLS   CLOUDY    36  30  80 E3        30.20S
LITCHFIELD     CLOUDY    39  34  81 NE13      30.16S
BUFFALO        CLOUDY    37  32  80 NE12      30.18S
MAPLE LAKE     CLOUDY    38  33  82 NE10      30.18S
HUTCHINSON     CLOUDY    38  35  89 NE8       30.16S
$$
MNZ037-044-045-052-053-250500-
   East Central Minnesota

CITY           SKY/WX    TMP DP  RH WIND       PRES   REMARKS
PRINCETON      CLOUDY    39  32  75 NE8G16    30.18F
MORA           CLOUDY    32  30  93 CALM      30.20F
CAMBRIDGE      CLOUDY    39  30  70 NE6       30.16F
RUSH CITY      CLOUDY    37  31  81 E6        30.19S
MOOSE LAKE     CLOUDY    34  32  93 NE5       30.20R WCI  30
HINCKLEY       MOCLDY    32  32 100 NE3       30.20S
CLOQUET        CLOUDY    34  30  86 E6        30.21F WCI  29
MCGREGOR       CLOUDY    36  32  87 CALM      30.22S
$$
MNZ071>073-080-081-089-090-097-098-250500-
   Southwest Minnesota

CITY           SKY/WX    TMP DP  RH WIND       PRES   REMARKS
MONTEVIDEO     CLOUDY    36  34  93 SE6       30.19R
GRANITE FALLS  CLOUDY    39  34  81 NE8       30.19R
CANBY          CLOUDY    34  32  95 CALM      30.18R
MARSHALL       CLOUDY    37  33  85 E10       30.16F
REDWOOD FALLS  CLOUDY    38  32  79 NE6       30.17R
OLIVIA         CLOUDY    36  32  87 NE9       30.16S
PIPESTONE      CLOUDY    36  30  80 E9        30.12R
WINDOM         CLOUDY    37  36  93 NE12G20   30.14R
WORTHINGTON    CLOUDY    35  34  96 NE13      30.12S FOG     WCI  26
JACKSON        CLOUDY    36  34  93 N15       30.12R FOG
TRACY          CLOUDY    37  34  90 NE8       30.16S
SLAYTON        CLOUDY    34  33  96 NE13G20   30.13F FOG     WCI  25
$$
MNZ065>067-074>077-082>085-091>093-250500-
   South Central Minnesota

CITY           SKY/WX    TMP DP  RH WIND       PRES   REMARKS
NEW ULM        CLOUDY    37  34  87 NE9       30.15R
ST JAMES       CLOUDY    37  36  93 N6        30.15R
FAIRMONT       CLOUDY    39  36  89 N12       30.11S
GLENCOE        CLOUDY    38  36  91 NE6       30.15S
FARIBAULT      CLOUDY    37  37 100 NE9       30.14S FOG
OWATONNA       CLOUDY    39  36  87 NE8       30.13R
WASECA         CLOUDY    39  36  87 NE13      30.13S
ALBERT LEA     CLOUDY    39  37  93 NE20      30.08F FOG
$$
MNZ078>079-086>088-094>096-250500-
   Southeast Minnesota

CITY           SKY/WX    TMP DP  RH WIND       PRES   REMARKS
ROCHESTER      CLOUDY    38  37  97 NE13      30.11R
RED WING       CLOUDY    39  34  81 NE3       30.15S
STANTON        CLOUDY    39  36  89 NE12G18   30.13S FOG
DODGE CENTER   CLOUDY    37  36  93 NE12      30.11S
WINONA         CLOUDY    41  36  81 E5        30.15S
AUSTIN         CLOUDY    39  36  87 NE14G20   30.09F FOG
PRESTON        CLOUDY    37  36  93 NE12      30.10S
$$
ABBREVIATIONS USED IN REMARKS
   TC - TEMPERATURES IN CELSIUS
  WCI - WIND CHILL INDEX
   HX - HEAT INDEX
  VSB - VISIBILITY
$$




USA.gov is the U.S. government's official web portal to all federal, state and local government web resources and services.